GW2624 Weather Reports


Display with metric or nautical units.
time (UTC)temp
F
wind
direction
speed
MPH
gust
MPH
rain 1hr
in
rain 24hr
in
rain mn
in
humidity
%
barometer
mb
20260901205404 79 194 3.0 12.0 0.00 0.35 0.31 46 1010.0
20260901204904 79 221 4.0 9.0 0.00 0.35 0.31 45 1010.0
20260901202904 78 190 2.0 10.0 0.00 0.35 0.31 48 1010.4
20260901202404 78 166 4.0 7.0 0.00 0.35 0.31 44 1010.3
20260901200904 78 247 3.0 7.0 0.00 0.35 0.31 43 1010.4
20260901200404 78 211 2.0 7.0 0.00 0.35 0.31 46 1010.3
20260901195904 77 204 3.0 7.0 0.00 0.35 0.31 47 1010.4
20260901194404 77 248 2.0 9.0 0.00 0.35 0.31 47 1010.3
20260901193904 77 141 4.0 9.0 0.00 0.35 0.31 44 1010.3
20260901192904 76 159 3.0 7.0 0.00 0.35 0.31 50 1010.5
20260901192404 75 191 1.0 3.0 0.00 0.35 0.31 54 1010.5
20260901190904 75 80 1.0 3.0 0.00 0.35 0.31 60 1010.6
20260901190404 74 299 2.0 3.0 0.00 0.35 0.31 59 1010.8
20260901184904 74 85 1.0 3.0 0.00 0.35 0.31 62 1010.9
20260901183404 73 292 1.0 3.0 0.00 0.35 0.31 65 1011.1
20260901181904 71 253 1.0 3.0 0.00 0.35 0.31 67 1011.2
20260901181404 71 302 0.0 3.0 0.00 0.35 0.31 67 1011.3
20260901180904 71 39 1.0 3.0 0.00 0.35 0.31 68 1011.4
20260901180404 71 221 0.0 3.0 0.00 0.35 0.31 71 1011.5
20260901174404 69 205 2.0 3.0 0.00 0.35 0.31 69 1011.7
20260901173404 68 165 1.0 3.0 0.00 0.35 0.31 71 1011.6
20260901171904 66 209 1.0 3.0 0.00 0.35 0.31 77 1011.8
20260901171403 66 218 1.0 3.0 0.00 0.35 0.31 77 1011.7
20260901170904 66 245 1.0 2.0 0.00 0.35 0.31 79 1011.6
20260901170404 65 271 1.0 3.0 0.00 0.35 0.31 81 1011.4
20260901165404 65 287 1.0 3.0 0.00 0.35 0.31 82 1011.4
20260901164404 64 123 1.0 2.0 0.00 0.35 0.31 85 1011.3
20260901163904 63 268 0.0 3.0 0.00 0.35 0.31 85 1011.2
20260901162404 63 172 1.0 3.0 0.00 0.35 0.31 86 1011.3
20260901161904 62 259 1.0 3.0 0.00 0.35 0.31 86 1011.3
20260901161404 62 30 1.0 3.0 0.00 0.35 0.31 86 1011.2
20260901160404 61 5 1.0 3.0 0.00 0.35 0.31 87 1011.2
20260901155904 61 31 0.0 3.0 0.00 0.35 0.31 87 1011.3
20260901154904 60 230 1.0 2.0 0.00 0.35 0.31 87 1011.3
20260901153904 59 0 0.0 1.0 0.00 0.35 0.31 87 1011.4
20260901153404 59 0 0.0 2.0 0.00 0.35 0.31 87 1011.4
20260901152903 59 0 0.0 2.0 0.00 0.35 0.31 87 1011.4
20260901152404 59 0 1.0 2.0 0.00 0.35 0.31 87 1011.4
20260901151404 59 0 0.0 2.0 0.00 0.35 0.31 87 1011.4
20260901145404 59 0 0.0 2.0 0.00 0.35 0.31 87 1011.1
20260901144903 59 0 0.0 2.0 0.00 0.35 0.31 87 1011.1
20260901144404 59 0 0.0 2.0 0.00 0.35 0.31 87 1011.1
20260901143904 59 0 0.0 0.0 0.00 0.35 0.31 87 1011.2
20260901143403 59 0 0.0 0.0 0.00 0.35 0.31 87 1011.2
20260901142904 59 0 0.0 0.0 0.00 0.35 0.31 87 1011.1
20260901141904 59 0 1.0 2.0 0.00 0.35 0.31 87 1011.0
20260901141404 58 0 0.0 0.0 0.00 0.35 0.31 87 1010.8
20260901133904 59 0 1.0 2.0 0.01 0.35 0.31 87 1010.2
20260901132905 59 0 0.0 2.0 0.01 0.35 0.31 87 1009.9
20260901131903 59 0 0.0 1.0 0.01 0.35 0.31 87 1010.0
20260901130404 58 0 0.0 1.0 0.01 0.35 0.31 87 1010.5
20260901125904 58 0 0.0 1.0 0.01 0.35 0.31 87 1010.4
20260901125404 58 0 0.0 2.0 0.00 0.34 0.30 87 1010.7
20260901124404 59 0 0.0 1.0 0.01 0.34 0.30 87 1010.6
20260901122903 58 0 0.0 1.0 0.02 0.34 0.30 87 1010.2
20260901121904 58 0 0.0 1.0 0.02 0.34 0.30 87 1010.3
20260901115404 58 0 0.0 2.0 0.03 0.34 0.30 87 1010.2
20260901114404 58 0 0.0 1.0 0.02 0.33 0.29 87 1010.4
20260901112904 58 0 1.0 3.0 0.01 0.32 0.28 87 1010.6
20260901112404 58 0 1.0 3.0 0.01 0.32 0.28 87 1010.5
20260901111404 58 0 0.0 3.0 0.01 0.32 0.28 87 1010.4
20260901104903 59 0 2.0 3.0 0.01 0.31 0.27 87 1010.5
20260901104404 59 0 0.0 1.0 0.02 0.31 0.27 87 1010.4
20260901102904 59 0 0.0 2.0 0.02 0.31 0.27 87 1010.3
20260901100904 59 0 0.0 0.0 0.02 0.31 0.27 87 1010.7
20260901100404 59 0 0.0 0.0 0.02 0.31 0.27 86 1010.8
20260901095404 59 0 0.0 1.0 0.02 0.31 0.27 86 1010.9
20260901093404 59 0 1.0 2.0 0.17 0.29 0.25 86 1011.1
20260901091903 59 0 0.0 3.0 0.23 0.29 0.25 86 1011.4
20260901090904 58 0 1.0 3.0 0.25 0.29 0.25 86 1011.3
20260901090404 58 0 0.0 9.0 0.25 0.29 0.25 86 1011.3
20260901084404 60 0 5.0 10.0 0.17 0.21 0.17 85 1010.7
20260901083404 61 0 4.0 9.0 0.08 0.12 0.08 86 1010.1
20260901082904 61 0 2.0 3.0 0.05 0.09 0.05 85 1010.0
20260901081404 60 0 1.0 2.0 0.00 0.04 0.00 85 1010.2
20260901080904 60 0 1.0 2.0 0.00 0.04 0.00 85 1010.0
20260901080404 60 0 0.0 1.0 0.00 0.04 0.00 85 1009.4
20260901075904 60 0 0.0 1.0 0.00 0.04 0.00 84 1009.3
20260901074904 60 0 0.0 1.0 0.00 0.04 0.00 84 1009.4
20260901073904 60 0 0.0 1.0 0.00 0.04 0.00 84 1009.6
20260901070903 61 0 0.0 1.0 0.00 0.04 0.00 83 1009.7
20260901065903 61 0 2.0 3.0 0.00 0.04 0.00 82 1009.7
20260901065404 61 0 0.0 2.0 0.00 0.04 0.00 82 1009.6
20260901064404 60 0 0.0 3.0 0.00 0.04 0.00 82 1009.4
20260901063404 60 0 0.0 1.0 0.00 0.04 0.00 82 1009.3
20260901062904 60 0 0.0 2.0 0.00 0.04 0.00 82 1009.3
20260901061404 60 0 0.0 0.0 0.00 0.04 0.00 83 1009.2
20260901060903 60 0 0.0 0.0 0.00 0.04 0.00 82 1009.1
20260901054904 60 0 0.0 3.0 0.01 0.04 0.04 81 1009.0
20260901053904 61 0 0.0 3.0 0.01 0.04 0.04 82 1009.0
20260901052404 61 0 0.0 2.0 0.01 0.04 0.04 80 1009.2
20260901051903 61 0 1.0 2.0 0.01 0.04 0.04 80 1009.2
20260901051403 61 0 0.0 3.0 0.01 0.04 0.04 79 1009.2
20260901045404 62 29 1.0 5.0 0.01 0.04 0.04 77 1010.1
20260901042404 62 142 3.0 7.0 0.00 0.03 0.03 76 1009.9
20260901041904 62 141 3.0 7.0 0.00 0.03 0.03 76 1009.6
20260901040404 62 88 0.0 3.0 0.00 0.03 0.03 74 1008.9
20260901035404 63 55 2.0 7.0 0.00 0.03 0.03 75 1009.3
20260901033403 64 139 1.0 3.0 0.00 0.03 0.03 71 1009.2
20260901031904 63 148 3.0 6.0 0.00 0.03 0.03 75 1009.5
20260901031404 63 143 2.0 3.0 0.00 0.03 0.03 76 1009.5
20260901025904 62 138 2.0 8.0 0.00 0.03 0.03 79 1009.2
20260901025404 62 146 4.0 8.0 0.00 0.03 0.03 80 1009.0
20260901024403 63 137 2.0 5.0 0.00 0.03 0.03 81 1008.6
20260901023904 63 144 2.0 5.0 0.00 0.03 0.03 82 1008.5
20260901022403 62 129 0.0 1.0 0.00 0.03 0.03 82 1008.0
20260901015903 63 99 0.0 3.0 0.01 0.03 0.03 82 1008.0
20260901014403 64 103 1.0 2.0 0.01 0.03 0.03 80 1008.0
20260901012904 64 21 2.0 3.0 0.01 0.03 0.03 77 1008.0
20260901012403 64 101 0.0 3.0 0.01 0.03 0.03 77 1007.9
20260901011904 65 53 0.0 3.0 0.01 0.03 0.03 76 1007.9
20260901011404 65 30 1.0 3.0 0.00 0.02 0.02 76 1007.8
20260901010904 65 265 0.0 3.0 0.00 0.02 0.02 77 1007.8
20260901005403 66 58 1.0 7.0 0.01 0.02 0.02 73 1008.1
20260901004403 66 125 2.0 8.0 0.02 0.02 0.02 70 1007.8
20260901003903 66 154 4.0 8.0 0.02 0.02 0.02 72 1007.5
20260901002904 66 139 4.0 9.0 0.02 0.02 0.02 74 1007.6
20260901001904 66 132 0.0 9.0 0.02 0.02 0.02 74 1007.8
20260901001404 67 146 3.0 12.0 0.02 0.02 0.02 72 1007.9
20260901000903 67 134 6.0 15.0 0.02 0.02 0.02 67 1007.6
20260831235904 69 170 5.0 13.0 0.01 0.01 0.01 57 1007.3
20260831235404 71 228 3.0 20.0 0.01 0.01 0.01 55 1006.5
20260831234904 73 196 7.0 20.0 0.01 0.01 0.01 48 1007.0
20260831233403 73 179 2.0 12.0 0.00 0.00 0.00 45 1005.6
20260831232903 73 137 4.0 12.0 0.00 0.00 0.00 46 1005.5
20260831232404 73 135 5.0 12.0 0.00 0.00 0.00 47 1005.5
20260831231904 72 144 3.0 8.0 0.00 0.00 0.00 48 1005.4
20260831231405 72 156 3.0 8.0 0.00 0.00 0.00 49 1005.5
20260831230904 72 129 2.0 6.0 0.00 0.00 0.00 49 1005.4
20260831230403 72 81 2.0 6.0 0.00 0.00 0.00 51 1005.2
20260831225905 72 134 2.0 8.0 0.00 0.00 0.00 54 1005.5
20260831224906 73 40 3.0 10.0 0.00 0.00 0.00 54 1005.6
20260831223905 76 143 5.0 18.0 0.00 0.00 0.00 47 1005.9
20260831223405 79 143 6.0 12.0 0.00 0.00 0.00 39 1005.6
20260831222905 81 140 5.0 10.0 0.00 0.00 0.00 36 1005.7
20260831222405 82 108 1.0 3.0 0.00 0.00 0.00 35 1005.2
20260831221905 82 330 1.0 3.0 0.00 0.00 0.00 35 1004.9
20260831221405 82 261 2.0 3.0 0.00 0.00 0.00 36 1004.9
20260831215405 81 59 2.0 3.0 0.00 0.00 0.00 35 1005.4
20260831214405 81 12 3.0 7.0 0.00 0.00 0.00 34 1005.2
20260831213905 81 19 2.0 7.0 0.00 0.00 0.00 35 1005.3
20260831211405 82 298 1.0 9.0 0.00 0.00 0.00 35 1005.4
20260831210405 82 130 3.0 13.0 0.00 0.00 0.00 34 1005.6